Regional Weather Roundup
Issued by NWS Little Rock, AR

Home | Current Version | Previous Version | Graphics & Text | Print | Product List | Glossary On
Versions: 1 2 3 4 5 6 7 8 9 10 11 12 13 14 15 16 17 18 19 20 21 22 23 24 25 26
000
ASUS44 KLZK 280405
RWRLZK

WEATHER ROUNDUP FOR ARKANSAS
NATIONAL WEATHER SERVICE LITTLE ROCK AR
1100 PM CDT WED APR 27 2016

NOTE: "FAIR" INDICATES FEW OR NO CLOUDS BELOW 12,000 FEET WITH NO
SIGNIFICANT WEATHER AND/OR OBSTRUCTIONS TO VISIBILITY.

ARZ001-003-010-029-280500-
NORTHWEST ARKANSAS

CITY           SKY/WX    TMP DP  RH WIND       PRES   REMARKS
FAYETTEVILLE   CLEAR     56  53  90 SW5       29.79R
FORT SMITH     CLEAR     62  53  72 W7        29.76R
HARRISON       CLEAR     62  51  67 W7        29.77R
BENTONVILLE    CLEAR     59  46  63 NW3       29.79R
ROGERS         CLEAR     58  50  75 NW7       29.79R
SILOAM SPGS    CLEAR     57  45  62 CALM      29.79R
$$

ARZ004-005-016-280500-
NORTH CENTRAL ARKANSAS

CITY           SKY/WX    TMP DP  RH WIND       PRES   REMARKS
BATESVILLE     CLEAR     66  63  88 E5        29.72R
FLIPPIN        CLEAR    N/A N/A N/A NW7       29.71R
MTN HOME       CLEAR     61  52  72 CALM      29.73R
$$

ARZ040-041-280500-
WEST CENTRAL ARKANSAS

CITY           SKY/WX    TMP DP  RH WIND       PRES   REMARKS
MENA           CLEAR     66  57  72 SW3       29.79R
MOUNT IDA      CLEAR     62  55  77 CALM      29.74R
$$

ARZ009-017-025-026-028-280500-
NORTHEAST ARKANSAS

CITY           SKY/WX    TMP DP  RH WIND       PRES   REMARKS
CORNING          N/A     68  64  88 S9        29.71R
JONESBORO      CLEAR     69  64  84 S8        29.71R
NEWPORT        CLEAR     69  67  93 S9        29.72R
WALNUT RIDGE   CLEAR     68  63  83 S8        29.71R
BLYTHEVILLE    PTCLDY    68  63  84 S9        29.73R
$$

ARZ022-023-033-042-044-280500-
CENTRAL ARKANSAS

CITY           SKY/WX    TMP DP  RH WIND       PRES   REMARKS
LITTLE ROCK    CLEAR     69  59  70 W6        29.73R
N LITTLE ROCK    N/A     69  58  67 CALM      29.72R
JACKSONVILLE   CLEAR     68  58  70 SW5       29.72R
SEARCY         PTCLDY    64  63  94 S7        29.73R
HOT SPRINGS    CLEAR     64  58  80 CALM      29.75R
RUSSELLVILLE   CLEAR     62  58  86 CALM      29.73R
$$

ARZ036-280500-
EAST ARKANSAS

CITY           SKY/WX    TMP DP  RH WIND       PRES   REMARKS
WEST MEMPHIS   CLEAR     66  65  96 S7        29.73R
$$

ARZ050-053-066-070-073-280500-
SOUTHWEST ARKANSAS

CITY           SKY/WX    TMP DP  RH WIND       PRES   REMARKS
ARKADELPHIA    FAIR      63  63 100 CALM      29.75R
CAMDEN         CLEAR     64  63  94 CALM      29.75R
TEXARKANA      CLEAR     67  56  67 W5        29.77R
EL DORADO      CLEAR     65  64  97 SW3       29.76R
DE QUEEN       CLEAR     59  58  96 CALM      29.76R
$$

ARZ056-057-069-280500-
SOUTHEAST ARKANSAS

CITY           SKY/WX    TMP DP  RH WIND       PRES   REMARKS
PINE BLUFF     CLEAR     67  64  90 CALM      29.74R
STUTTGART      CLEAR     70  61  73 S10       29.74R
MONTICELLO     CLEAR     69  66  90 S3        29.75R

$$






USA.gov is the U.S. government's official web portal to all federal, state and local government web resources and services.